Find Starlink 37077

NORAD ID: 68169 Int'l Des: 2026-050 Owner: SPXS Country: US Constellation: starlink operational
LEOCIRCULAR

Live Position

Loading 3D Globe...

About Starlink 37077

Description loading...

Upcoming Passes

Passes for default location (London). Set your location on the main map for personalized predictions.

Altitude History

Loading altitude history...

Two-Line Element Set

1 68169U 26050C 26105.91668981 -.01798293 00000-0 -36280-1 0 9996
2 68169 53.1591 96.1712 0001702 100.7819 126.8634 15.49433904 6130
Epoch: Apr 15, 2026 • Age: 14 hours

Current Status

Altitude 428.9 km
Velocity 7.65 km/s
Sub-Earth Point -13.89°S, 97.79°W
Launch Date Mar 14, 2026
Age 32 days
Type internet

Technical Details

Classification Payload
Mass 575.00 kg
Dry Mass 530.00 kg
Total Mass 575.00 kg
Length 0.30 m
Diameter 4.10 m
Span 29.00 m
Shape Box + pan
Manufacturer SPXS
Bus Type Starlink V2MO
Phase Status In Orbit
Owner/State SPXS/US

Most Searched